Location: Apalco
(33.3585°N, 93.4602°W)
Time: 11:11:41
(UTC+00:00)

Tiangong - Pass Details

Date: 25 September 2021
Orbit: 382 x 385 km, 41.5° (Epoch: 18 October)

Event Time Altitude Azimuth Distance (km) Brightness Sun altitude
Exits shadow 09:35:36 - 102° (ESE) 1,674 5.0 -31.2°
Enters shadow 10:32:14 -69° 244° (WSW) 12,321 8.6 -19.9°
Maximum altitude 11:09:43 85° 156° (SSE) 384 1.0 -12.2°
